Regional Weather Roundup
Issued by NWS Grand Forks, ND

Home | Current Version | Previous Version | Text Only | Print | Product List | Glossary On
Versions: 1 2 3 4 5 6 7 8 9 10 11 12 13 14 15 16 17 18 19 20 21 22 23 24 25 26 27 28 29 30 31 32 33 34 35 36 37 38 39 40 41 42 43 44 45 46 47 48 49 50
000
ASUS43 KFGF 072231
RWRFGF
PRAIRIE TO PINES  WEATHER ROUNDUP
NATIONAL WEATHER SERVICE EASTERN NORTH DAKOTA/GRAND FORKS ND
400 PM CST SUN FEB 07 2016

 **SATELLITE DATA USED TO AUGMENT SKY COVER AT AUTOMATED STATIONS**
 *****  WEATHER ACROSS EASTERN NORTH DAKOTA  *****

CITY           SKY/WX    TMP DP  RH WIND       PRES   REMARKS
GRAND FORKS    SNOW      17  12  80 N20G31    29.89R VSB 1/4 WCI   1
GRAND FRKS AFB LGT SNOW  18  12  79 N26G38    29.89R WCI  -1
GRAND FRKS NWS   N/A     16 N/A N/A VRB23       N/A  WCI  -2
DEVILS LAKE    LGT SNOW  19  12  73 NW39G46   29.90R WCI  -2
FARGO          FLURRIES  24  15  68 N31G38    29.84R WCI   7
WAHPETON ARPT  CLOUDY    25  19  80 N23G33    29.83R WCI  10
$$

 ***** WEATHER ACROSS CENTRAL AND WESTERN NORTH DAKOTA  *****

CITY           SKY/WX    TMP DP  RH WIND       PRES   REMARKS
BISMARCK       PTSUNNY   36  17  46 NW25G40   30.03R
MINOT          MOSUNNY   34  17  50 NW36G47   30.03R WCI  19
JAMESTOWN      LGT SNOW  22  16  78 NW26G43   29.90R WCI   5
MINOT AFB      CLOUDY    32  19  59 NW37G49   30.03R SQUALL  WCI  16
GARRISON         N/A     34  17  50 NW43G58   30.02R WCI  18
WILLISTON      SUNNY     36  18  48 NW35G45   30.19R
DICKINSON      PTSUNNY   33  11  39 NW37G47   30.12R WCI  18
HETTINGER      MOSUNNY   35  10  35 NW39G49   30.13R WCI  20
$$

 *****  OTHER AIRPORT OBSERVATIONS IN OUR AREA  *****

CITY           SKY/WX    TMP DP  RH WIND       PRES   REMARKS
WALHALLA       FAIR      16  10  79 N22G36    29.94R WCI  -2
GRAFTON AIRPOR LGT SNOW  16  12  86 NW29G35   29.91R WCI  -4
VALLEY CITY AR LGT SNOW  21  14  73 NW33G44   29.90R WCI   2
CANDO          LGT SNOW  19  16  86 N31G40    29.96R WCI   0
CAVALIER APRT  LGT SNOW  14   9  79 N32G43    29.92R WCI  -7
GWINNER          N/A     27  23  86 NW30G38   29.87R WCI  10
SHEYENNE NWR     N/A     25  15  65 N21       29.95S WCI  11
ROLLA          FLURRIES  18  12  79 NW36G49   29.94R WCI  -3
 ***** THE ABOVE OBSERVATIONS ARE NON NWS ARE NOT QUALITY
       CONTROLLED AND MAY MIS-REPORT RAIN FOR SNOW...
$$

  *****  WEATHER ACROSS NORTHERN MINNESOTA  *****

CITY           SKY/WX    TMP DP  RH WIND       PRES   REMARKS
FLAG ISLAND    LGT SNOW  14  10  85 NW26G36   29.69R WCI  -6
WARROAD        LGT SNOW  12   7  79 NW23G31   29.74R WCI  -7
ROSEAU         LGT SNOW  12   7  79 NW25      29.76R WCI  -8
HALLOCK        HVY SNOW  12   9  85 N30G44    29.87R VSB<1/4 WCI  -9
THF RVR FALLS  NOT AVBL
BAUDETTE       MIX PCPN  17  11  77 NW22G30   29.66R WCI   0
WASKISH        LGT SNOW  19  16  86 NW18G24   29.66R WCI   4
CROOKSTON      HVY SNOW  14  12  92 N29       29.87R VSB<1/4 WCI  -7
STEPHEN NDAWN    N/A     12  10  92 N33         N/A  WCI -10
GREENBUSH NDAW   N/A     10   9  92 NW22        N/A  WCI  -9
$$
  *****  WEATHER ACROSS CENTRAL AND WEST MINNESOTA  *****

CITY           SKY/WX    TMP DP  RH WIND       PRES   REMARKS
FOSSTON        SNOW      10   9  92 NW21G32   29.78R VSB 1/2 WCI  -9
BEMIDJI        LGT SNOW  15  11  84 NW24G32   29.67R WCI  -3
PARK RAPIDS    LGT SNOW  17  11  77 NW29G36   29.68R VSB 3/4 WCI  -2
ELBOW LAKE     LGT SNOW  24  20  85 NW20G31   29.78R WCI   9
WADENA         FLURRIES  18  12  79 NW26G37   29.70R WCI  -1
DETROIT LAKES  SNOW      18  14  86 N20G32    29.78R VSB 1/2 WCI   1
MOORHEAD       CLOUDY    21  16  79 N33G39    29.84R WCI   2
FERGUS FALLS   LGT SNOW  21  18  86 N28G40    29.81R WCI   3
MORRIS MN      LGT SNOW  27  23  86 N30       29.77R WCI  10
STAPLES        LGT SNOW  19  16  86 NW21G28   29.68R WCI   3
$$
  *****  WEATHER ELSEWHERE ACROSS MINNESOTA  *****

CITY           SKY/WX    TMP DP  RH WIND       PRES   REMARKS
DULUTH         LGT SNOW  31  27  85 NW17G24   29.48R FOG     WCI  19
INTRNTL FALLS  MIX PCPN  26  23  88 NW15      29.54R FOG     WCI  14
ELY            LGT SNOW  32  30  93 NW7       29.45R VSB 3/4
CLOQUET        FLURRIES  30  27  86 W14G23    29.51R WCI  20
WHEATON        MIX PCPN  28  21  74 NW31G38   29.83R WCI  12
BRAINERD       SNOW      22  19  89 NW21G33   29.64R VSB 1/2 WCI   6
HIBBING        LGT SNOW  26  23  88 NW16      29.52R FOG     WCI  14
ALEXANDRIA     FLURRIES  25  17  72 NW23G37   29.72R WCI  10
SAINT CLOUD    CLOUDY    31  21  66 NW25G43   29.64R WCI  17
MINNEAPOLIS    CLOUDY    37  29  72 W15       29.62S
$$

  *****  WEATHER ACROSS SOUTH DAKOTA  *****

CITY           SKY/WX    TMP DP  RH WIND       PRES   REMARKS
SIOUX FALLS    CLOUDY    33  24  69 NW30G43   29.85R WCI  19
BROOKINGS      NOT AVBL
WATERTOWN      LGT SNOW  26  18  71 NW32G39   29.84R WCI   9
HURON          FLURRIES  31  23  72 NW26G40   29.92R WCI  17
SISSETON         N/A     28  20  71 N28G46    29.80R WCI  13
ABERDEEN       CLOUDY    30  17  58 N32G46    29.92R WCI  14
MITCHELL       CLOUDY    34  25  69 NW31G46   29.95R WCI  20
PIERRE         CLOUDY    38  17  42 NW36G46   30.02R
MOBRIDGE       CLOUDY    36  19  50 NW41G53   29.97R
RAPID CITY     SUNNY     39   5  24 NW47G61   30.17R
$$

  *****  SOME WEATHER IN NEARBY STATES *****

CITY           SKY/WX    TMP DP  RH WIND       PRES   REMARKS
GLASGOW MT     MOSUNNY   36  20  52 NW23G33   30.33R
GREAT FALLS MT SUNNY     44   8  23 SW8G20    30.41F
CHEYENNE WY    SUNNY     31  17  56 N25G38    30.24R WCI  17
SCOTTSBLUFF NE CLOUDY    34  17  50 NW21G30   30.30R WCI  22
OMAHA NE       FLURRIES  36  29  75 NW18G32   29.96R
DES MOINES IA  PTSUNNY   40  25  55 W21       29.85S
DAVENPORT IA   SUNNY     43  29  57 W15       29.80R
CHICAGO IL     CLOUDY    42  32  67 W15G23    29.72S
EAU CLAIRE WI  CLOUDY    38  25  59 W13G22    29.58S
LA CROSSE WI   CLOUDY    39  25  57 W14G23    29.66R
$$

  *****  SOME NATIONAL WEATHER *****

CITY           SKY/WX    TMP DP  RH WIND       PRES   REMARKS
LA GUARDIA NY  CLOUDY    42  28  57 NE9       30.04F
RALEIGH NC     CLOUDY    44  21  40 NE10G22   29.89F
ATLANTA GA     MOSUNNY   55  21  26 NW13G20   29.99S
NEW ORLEANS LA SUNNY     59  19  21 VRB3      30.15F
OKLAHOMA CITY  MOSUNNY   59  24  26 N16       30.14S
ALBUQUERQUE NM MOSUNNY   56  15  20 N16       30.28F
SALT LAKE CITY MOSUNNY   39  26  59 N5        30.58F HAZE
LOS ANGELES CA SUNNY     78  33  19 W8        30.08F
BOISE ID       SUNNY     47  34  60 NW8       30.59F
SEATTLE WA     PTSUNNY   51  36  56 N9        30.55F
$$

*** WEATHER ACROSS MANITOBA...SASKATCHEWAN AND ONTARIO ***
                ***ONTARIO***

CITY           SKY/WX    TMP DP  RH WIND       PRES   REMARKS
GERALDTON      LGT SNOW   5   0  78 NE12G23   29.71R VSB 3/4 WCI -11
THUNDER BAY    SNOW      23  21  93 E13       29.57R VSB 1/2 WCI  11
SIOUX LOOKOUT  LGT SNOW  14   9  79 NE3       29.62R
TORONTO        MOCLDY    39  28  65 E12       29.88F
BIG TROUT LK   CLEAR     -2 -11  65 E8        29.99R WCI -17
PICKLE LAKE    LGT SNOW   5   0  78 E13G23    29.74R DRFTSNOWWCI -12
DRYDEN         FLURRIES  16  12  86 NE12      29.60R WCI   3
KENORA         LGT SNOW  18  14  86 N13G20    29.64R DRFTSNOWWCI   4
$$
                *** MANITOBA***

CITY           SKY/WX    TMP DP  RH WIND       PRES   REMARKS
BRANDON        FLURRIES  18  10  73 NW25G36   30.01R WCI  -1
DAUPHIN        CLOUDY    16   9  73 N9G17     30.05R WCI   4
ISLAND LAKE    FLURRIES   3  -2  78 NE6       29.91R WCI  -8
PILOT MOUND      N/A     16  12  86 NW28G35     N/A  WCI  -4
THE PAS        FLURRIES  10   5  79 NW15      30.09R WCI  -6
THOMPSON       LGT SNOW  -4  -9  77 N8        30.02R WCI -19
WINNIPEG       LGT SNOW   9   5  85 N25G33    29.92R BLWGSNOWWCI -13
LYNN LAKE      FLURRIES   5   1  85 NW8G17    30.05R WCI  -8
CHURCHILL      FLURRIES  -9 -17  70 SE8       30.20R WCI -26
GILLAM         CLOUDY    -4 -13  65 NE9       30.06R WCI -20
$$
                ***SASKATCHEWAN***

CITY           SKY/WX    TMP DP  RH WIND       PRES   REMARKS
ESTEVAN        MOSUNNY   32  21  64 NW36G47   30.12R WCI  16
KINDERSLEY     MOSUNNY   34  21  60 NW12G17   30.33R
LLOYDMINSTER   PTSUNNY   30  19  64 W15G21    30.29R WCI  19
PRINCE ALBERT  MOSUNNY   28  18  64 NW16      30.19R WCI  17
REGINA         MOSUNNY   32  19  59 NW31G39   30.21R WCI  17
YORKTON        FLURRIES  23  18  80 NW30G41   30.07R WCI   5
N. BATTLEFORD  SUNNY     30  18  59 NW18      30.29R WCI  18
LA RONGE       FLURRIES  16   9  73 NW16      30.18R WCI   0
SASKATOON      MOSUNNY   30  21  69 NW17G25   30.25S WCI  18
SWIFT CURRENT  SUNNY     34  18  51 NW30G38   30.29R WCI  20
$$
NOTE: THESE ARE AUTOMATED STATIONS WITH LIMITED QUALITY CONTROL
      "FAIR" INDICATES FEW OR NO CLOUDS BELOW 12,000 FEET WITH NO
      SIGNIFICANT WEATHER AND/OR OBSTRUCTIONS TO VISIBILITY.
      SKY/WX - SKY CONDITION AND SIGNIFICANT WEATHER.
      TMP - AIR TEMPERATURE.    DP   - DEWPOINT TEMPERATURE.
      RH  - RELATIVE HUMIDITY.  PRES - PRESSURE.
      HX  - HEAT INDEX.         WCI  - WIND CHILL INDEX.
$



USA.gov is the U.S. government's official web portal to all federal, state and local government web resources and services.